International Virtual Aviation Organisation

Russian Federation and Kazakhstan MCD

 

Карточка аэропорта UNNT

Внимание!
Информация на этой странице в стадии наполнения.
Если вы не увидели какой-то информации, или заметили неточность - пожалуйста сообщите нам!
Спасибо!
Команда RU-STAFF
Название аэропортаТолмачево
Название аэропорта (англ.)Tolmachevo
Превышение367 ft. (111.9 m.)
Координаты55°0.77999999999989', 82°38.178'
Высота перехода1300m
Эшелон переходаFL060
Коды ответчика5201-5277
Зона ОрВДНовосибирск РПИ (UNNT)
Данные METARUNNT 170900Z 18005MPS CAVOK M02/M07 Q1030 R25/810160 R34/450740 NOSIG RMK QFE762/1017
Проноз погоды (TAF)UNNT 170800Z 1709/1809 18005G10MPS 9999 BKN016 TEMPO 1709/1715 22007G13MPS -SHSN DRSN BKN011CB TEMPO 1715/1809 -SHSN BKN011CB
NOTAMshow/hide NOTAM
AWOS   TABLE

Информация о ВПП

ВПП Длина ВПП (м.) Покрытие Курс ВПП Частота ILS
073597Асфальтобетон72110.1
253597Асфальтобетон252108.5
163602Цементобетон161109.7
343602Цементобетон341111.1

Диспетчерские позиции

Позывной Наименование органа УВД Частота
UNNT_GNDНовосибирск Руление121.7
UNNT_TWRНовосибирск Вышка118.5
UNNT_R_APPНовосибирск Круг122.0
UNNT_APPНовосибирск Подход127.5



Спутниковое изображение